DW7756 Weather Reports


Display with metric or nautical units.
time (UTC)temp
F
wind
direction
speed
MPH
gust
MPH
rain 1hr
in
rain 24hr
in
rain mn
in
humidity
%
barometer
mb
20260905081535 76 0 0.0 0.0 0.00 0.24 0.00 91 1013.9
20260905080040 76 0 0.0 0.0 0.00 0.24 0.00 91 1013.8
20260905074542 76 0 0.0 0.0 0.00 0.24 0.00 91 1013.9
20260905073040 76 0 0.0 0.0 0.00 0.24 0.00 91 1013.8
20260905071536 76 0 0.0 0.0 0.00 0.24 0.00 91 1013.7
20260905070038 77 0 0.0 0.0 0.00 0.24 0.00 90 1013.8
20260905064534 77 0 0.0 0.0 0.00 0.24 0.00 90 1014.1
20260905063039 77 0 0.0 2.0 0.00 0.24 0.00 90 1014.2
20260905061537 77 244 0.0 2.0 0.00 0.24 0.00 90 1014.2
20260905060038 77 0 0.0 0.0 0.00 0.24 0.00 90 1014.3
20260905054538 77 0 0.0 1.0 0.00 0.24 0.00 90 1014.7
20260905053042 77 244 1.0 2.0 0.00 0.24 0.00 90 1014.7
20260905051544 76 0 0.0 0.0 0.00 0.24 0.00 90 1014.9
20260905050040 77 0 0.0 0.0 0.00 0.24 0.00 90 1014.9
20260905044540 77 0 0.0 0.0 0.00 0.24 0.00 90 1015.0
20260905043051 77 0 0.0 0.0 0.00 0.24 0.00 90 1015.0
20260905041540 77 0 0.0 0.0 0.00 0.24 0.00 90 1015.3
20260905040042 77 0 0.0 2.0 0.01 0.24 0.00 90 1015.3
20260905034552 77 0 0.0 2.0 0.11 0.24 0.24 90 1015.4
20260905033107 77 0 0.0 2.0 0.12 0.24 0.24 90 1015.3
20260905031551 77 244 1.0 2.0 0.12 0.24 0.24 90 1015.5
20260905030050 77 0 0.0 2.0 0.17 0.23 0.23 89 1015.5
20260905024536 77 232 1.0 2.0 0.07 0.13 0.13 89 1015.8
20260905023049 77 0 0.0 2.0 0.06 0.12 0.12 89 1015.7
20260905021541 76 263 0.0 2.0 0.06 0.12 0.12 89 1015.6
20260905020039 76 284 2.0 3.0 0.00 0.06 0.06 89 1015.7
20260905014535 76 0 0.0 2.0 0.00 0.06 0.06 88 1015.5
20260905013042 76 94 0.0 2.0 0.01 0.06 0.06 88 1015.5
20260905011541 76 94 1.0 2.0 0.01 0.06 0.06 88 1015.4
20260905010041 76 94 0.0 3.0 0.03 0.06 0.06 88 1015.1
20260905004538 76 0 0.0 0.0 0.04 0.06 0.06 87 1015.1
20260905003041 76 0 0.0 0.0 0.03 0.05 0.05 87 1015.0
20260905001543 76 0 0.0 0.0 0.02 0.04 0.04 87 1015.1
20260905000038 76 0 0.0 2.0 0.02 0.03 0.03 86 1015.3
20260904234535 76 55 1.0 2.0 0.02 0.02 0.02 85 1015.8
20260904233046 76 0 0.0 2.0 0.02 0.02 0.02 85 1015.4
20260904231541 77 169 2.0 4.0 0.02 0.02 0.02 84 1015.6
20260904230101 78 212 2.0 11.0 0.01 0.01 0.01 82 1015.5
20260904224538 81 248 7.0 17.0 0.00 0.00 0.00 74 1015.5
20260904223040 85 202 2.0 8.0 0.00 0.00 0.00 79 1014.9
20260904221539 85 30 1.0 7.0 0.00 0.00 0.00 78 1014.3
20260904220038 86 0 2.0 8.0 0.00 0.00 0.00 77 1014.3
20260904214536 87 83 2.0 10.0 0.00 0.00 0.00 76 1013.5
20260904213043 88 94 3.0 11.0 0.00 0.00 0.00 75 1013.3
20260904211538 88 90 2.0 11.0 0.00 0.00 0.00 75 1014.1
20260904210035 88 181 3.0 12.0 0.00 0.00 0.00 75 1013.9
20260904204538 89 71 4.0 9.0 0.00 0.00 0.00 73 1013.9
20260904203039 89 86 5.0 12.0 0.00 0.00 0.00 72 1013.8
20260904201539 90 155 2.0 11.0 0.00 0.00 0.00 72 1013.7
20260904200050 90 74 3.0 11.0 0.00 0.00 0.00 72 1014.0
20260904194537 90 84 2.0 10.0 0.00 0.00 0.00 71 1014.4
20260904193041 91 94 3.0 8.0 0.00 0.00 0.00 71 1014.5
20260904191542 90 106 2.0 10.0 0.00 0.00 0.00 72 1014.5
20260904190044 90 106 2.0 8.0 0.00 0.00 0.00 72 1014.7
20260904184537 90 82 2.0 8.0 0.00 0.00 0.00 72 1015.0
20260904183055 91 84 3.0 8.0 0.00 0.00 0.00 71 1015.1
20260904181549 92 109 1.0 8.0 0.00 0.00 0.00 69 1015.3
20260904180040 93 102 2.0 6.0 0.00 0.00 0.00 68 1015.6
20260904174537 93 142 2.0 6.0 0.00 0.00 0.00 66 1015.7
20260904173035 93 189 1.0 6.0 0.00 0.00 0.00 66 1015.7
20260904171545 92 0 1.0 7.0 0.00 0.00 0.00 66 1015.9
20260904170042 91 156 2.0 8.0 0.00 0.00 0.00 68 1016.0
20260904164546 90 132 2.0 4.0 0.00 0.07 0.00 68 1016.1
20260904163034 90 232 2.0 5.0 0.00 0.07 0.00 69 1016.4
20260904161547 90 215 2.0 7.0 0.00 0.07 0.00 70 1016.4
20260904160038 90 202 3.0 10.0 0.00 0.07 0.00 70 1016.6
20260904154536 89 234 5.0 10.0 0.00 0.09 0.00 70 1016.7
20260904153059 89 213 2.0 10.0 0.00 0.09 0.00 71 1016.7
20260904151545 89 222 4.0 14.0 0.00 0.09 0.00 71 1016.5
20260904150042 89 219 2.0 7.0 0.00 0.09 0.00 72 1016.4
20260904144538 88 179 3.0 9.0 0.00 0.10 0.00 74 1016.6
20260904143041 87 152 3.0 6.0 0.00 0.10 0.00 75 1016.4
20260904141537 86 140 2.0 8.0 0.00 0.10 0.00 78 1016.4
20260904140039 84 217 3.0 6.0 0.00 0.10 0.00 81 1016.1
20260904134538 83 223 1.0 7.0 0.00 0.14 0.00 84 1016.0
20260904133045 82 160 3.0 7.0 0.00 0.14 0.00 87 1015.9
20260904131543 81 256 1.0 5.0 0.00 0.14 0.00 89 1015.8
20260904130037 80 150 1.0 10.0 0.00 0.14 0.00 90 1015.8
20260904124535 79 180 4.0 8.0 0.00 0.14 0.00 91 1015.7
20260904123037 79 196 1.0 5.0 0.00 0.14 0.00 91 1015.6
20260904121539 78 210 3.0 5.0 0.00 0.14 0.00 91 1015.4
20260904120039 78 204 1.0 2.0 0.00 0.14 0.00 91 1015.3
20260904114536 77 0 0.0 2.0 0.00 0.20 0.00 91 1015.3
20260904113042 77 0 0.0 2.0 0.00 0.20 0.00 91 1015.1
20260904111538 77 178 0.0 2.0 0.00 0.20 0.00 91 1015.0
20260904110037 77 0 0.0 2.0 0.00 0.20 0.00 91 1014.9
20260904104536 77 0 0.0 0.0 0.00 0.67 0.00 90 1014.6
20260904103049 77 0 0.0 0.0 0.00 0.67 0.00 90 1014.5
20260904101547 77 0 0.0 0.0 0.00 0.67 0.00 90 1014.5
20260904100035 77 0 0.0 0.0 0.00 0.67 0.00 90 1014.4
20260904094556 77 0 0.0 0.0 0.00 0.67 0.00 90 1014.4
20260904093038 77 0 0.0 0.0 0.00 0.67 0.00 90 1014.3
20260904091535 77 0 0.0 0.0 0.00 0.67 0.00 90 1014.2
20260904090037 77 0 0.0 0.0 0.00 0.67 0.00 90 1014.3
20260904084539 77 0 0.0 0.0 0.00 0.67 0.00 90 1014.2
20260904083046 77 0 0.0 0.0 0.00 0.67 0.00 90 1014.1